Precipitable_Water
1.37 1.41 1.41 1.38 1.41 1.44 1.46 1.47 1.49 1.47 1.45 1.42 1.38 1.33 1.31 1.29 1.28 1.27 1.26 1.25 1.24 1.22 1.23 1.22 1.23 1.21 1.19 1.16 1.13 1.10 1.11 1.14 1.17 1.19 1.23 1.24 1.22 1.22 1.20 1.20 1.20 1.17 1.16 1.14 1.13 1.09 1.09 1.06 1.00 0.99 0.96 0.92 0.91 0.91 0.91 0.90 0.90 0.88 0.87 0.86 0.83 0.79 0.76 0.76 0.74 0.74 0.74 0.74 0.74 0.73 0.73 0.74 0.75 0.75 0.76 0.76 0.76 0.75 0.75 0.76 0.80 0.76 0.75 0.74 0.73
1.40 1.44 1.39 1.37 1.40 1.42 1.41 1.40 1.39 1.41 1.39 1.34 1.36 1.34 1.31 1.30 1.30 1.30 1.29 1.29 1.25 1.25 1.27 1.25 1.24 1.25 1.24 1.20 1.15 1.13 1.13 1.14 1.16 1.19 1.22 1.23 1.24 1.22 1.21 1.22 1.22 1.18 1.19 1.18 1.18 1.13 1.13 1.12 1.10 1.05 1.01 0.99 0.98 0.96 0.95 0.94 0.93 0.90 0.88 0.86 0.84 0.82 0.80 0.78 0.78 0.77 0.76 0.74 0.71 0.74 0.74 0.72 0.71 0.73 0.74 0.75 0.75 0.75 0.74 0.75 0.79 0.77 0.75 0.74 0.73
1.40 1.40 1.38 1.37 1.38 1.37 1.34 1.35 1.33 1.36 1.36 1.33 1.38 1.37 1.36 1.33 1.32 1.31 1.29 1.28 1.27 1.29 1.28 1.27 1.30 1.31 1.32 1.30 1.27 1.25 1.21 1.20 1.21 1.23 1.21 1.22 1.22 1.21 1.23 1.24 1.23 1.21 1.21 1.21 1.22 1.15 1.10 1.14 1.10 1.09 1.08 1.07 1.04 1.00 0.98 0.96 0.95 0.94 0.93 0.91 0.88 0.85 0.82 0.79 0.77 0.75 0.71 0.72 0.70 0.69 0.69 0.69 0.70 0.70 0.69 0.71 0.71 0.71 0.72 0.73 0.74 0.75 0.75 0.74 0.73
1.39 1.37 1.33 1.33 1.34 1.32 1.32 1.30 1.28 1.33 1.35 1.36 1.36 1.39 1.35 1.32 1.32 1.33 1.32 1.30 1.29 1.31 1.33 1.30 1.30 1.32 1.34 1.34 1.36 1.35 1.33 1.30 1.27 1.25 1.24 1.23 1.23 1.24 1.26 1.27 1.26 1.23 1.23 1.25 1.23 1.13 1.08 1.15 1.18 1.17 1.15 1.13 1.10 1.01 0.98 0.99 0.98 0.96 0.93 0.91 0.89 0.85 0.81 0.79 0.77 0.76 0.77 0.75 0.75 0.72 0.69 0.68 0.66 0.66 0.67 0.67 0.68 0.69 0.68 0.69 0.71 0.72 0.73 0.73 0.72
1.38 1.36 1.34 1.33 1.32 1.29 1.27 1.27 1.28 1.33 1.37 1.38 1.37 1.35 1.31 1.28 1.29 1.31 1.29 1.29 1.28 1.29 1.33 1.34 1.33 1.33 1.35 1.36 1.38 1.37 1.39 1.38 1.35 1.35 1.33 1.32 1.34 1.34 1.33 1.33 1.32 1.31 1.31 1.30 1.26 1.20 1.14 1.11 1.21 1.18 1.09 1.16 1.05 0.98 1.01 1.05 1.05 1.02 0.99 0.97 0.94 0.91 0.86 0.81 0.80 0.78 0.76 0.75 0.74 0.75 0.73 0.70 0.68 0.64 0.63 0.65 0.65 0.66 0.66 0.67 0.68 0.68 0.69 0.70 0.69
1.37 1.35 1.35 1.31 1.29 1.28 1.26 1.25 1.29 1.32 1.35 1.35 1.29 1.26 1.24 1.25 1.25 1.25 1.24 1.24 1.23 1.25 1.27 1.28 1.32 1.34 1.34 1.37 1.36 1.37 1.38 1.37 1.39 1.42 1.43 1.43 1.45 1.43 1.40 1.38 1.38 1.39 1.39 1.37 1.36 1.33 1.29 1.22 1.22 1.23 1.20 1.14 1.12 1.10 1.11 1.15 1.14 1.14 1.11 1.07 1.04 1.03 1.00 0.97 0.95 0.93 0.90 0.88 0.86 0.83 0.79 0.73 0.68 0.65 0.61 0.61 0.63 0.62 0.63 0.64 0.63 0.64 0.66 0.68 0.66
1.35 1.34 1.33 1.30 1.26 1.25 1.25 1.26 1.30 1.33 1.32 1.31 1.26 1.22 1.20 1.20 1.23 1.19 1.23 1.23 1.23 1.26 1.27 1.28 1.29 1.31 1.35 1.38 1.37 1.40 1.41 1.39 1.42 1.45 1.47 1.48 1.48 1.45 1.42 1.39 1.39 1.41 1.42 1.43 1.44 1.42 1.40 1.37 1.29 1.27 1.24 1.22 1.23 1.21 1.17 1.15 1.15 1.16 1.18 1.16 1.14 1.12 1.08 1.05 1.02 1.00 1.00 0.98 0.99 0.97 0.94 0.91 0.84 0.77 0.70 0.61 0.60 0.60 0.61 0.61 0.62 0.63 0.63 0.65 0.66
1.34 1.35 1.30 1.29 1.27 1.25 1.26 1.30 1.30 1.31 1.31 1.30 1.26 1.19 1.18 1.18 1.23 1.23 1.17 1.19 1.22 1.23 1.30 1.29 1.32 1.34 1.38 1.40 1.41 1.41 1.39 1.41 1.42 1.44 1.47 1.47 1.45 1.43 1.42 1.42 1.42 1.42 1.43 1.44 1.43 1.43 1.41 1.39 1.38 1.38 1.37 1.39 1.40 1.39 1.38 1.36 1.34 1.34 1.36 1.39 1.35 1.30 1.27 1.20 1.15 1.13 1.12 1.09 1.07 1.05 1.04 1.01 0.98 0.97 0.93 0.86 0.78 0.71 0.63 0.62 0.62 0.61 0.63 0.65 0.67
1.33 1.36 1.30 1.28 1.29 1.27 1.28 1.30 1.31 1.29 1.28 1.28 1.24 1.22 1.19 1.16 1.20 1.25 1.23 1.18 1.21 1.23 1.27 1.30 1.30 1.34 1.38 1.40 1.41 1.42 1.40 1.42 1.43 1.44 1.46 1.45 1.44 1.44 1.44 1.44 1.44 1.43 1.42 1.42 1.42 1.40 1.39 1.38 1.38 1.39 1.39 1.41 1.41 1.42 1.43 1.44 1.44 1.47 1.44 1.43 1.43 1.45 1.46 1.45 1.42 1.37 1.32 1.30 1.27 1.23 1.21 1.18 1.12 1.09 1.06 1.03 0.98 0.94 0.86 0.75 0.72 0.69 0.66 0.67 0.67
1.32 1.33 1.37 1.34 1.29 1.27 1.27 1.28 1.30 1.26 1.24 1.26 1.25 1.26 1.21 1.19 1.17 1.24 1.25 1.21 1.20 1.21 1.23 1.29 1.30 1.30 1.34 1.38 1.40 1.43 1.44 1.43 1.46 1.47 1.44 1.42 1.43 1.42 1.43 1.43 1.40 1.39 1.39 1.39 1.38 1.37 1.36 1.37 1.38 1.38 1.38 1.39 1.41 1.44 1.43 1.43 1.45 1.44 1.38 1.42 1.46 1.46 1.47 1.46 1.49 1.45 1.44 1.42 1.38 1.35 1.32 1.31 1.28 1.23 1.21 1.19 1.16 1.12 1.10 1.02 0.94 0.86 0.81 0.76 0.73
1.30 1.34 1.36 1.27 1.24 1.25 1.24 1.25 1.28 1.29 1.27 1.25 1.23 1.21 1.19 1.21 1.19 1.20 1.25 1.26 1.24 1.26 1.27 1.29 1.28 1.30 1.32 1.36 1.40 1.40 1.43 1.43 1.47 1.45 1.44 1.43 1.42 1.42 1.43 1.40 1.40 1.40 1.38 1.38 1.37 1.36 1.36 1.37 1.37 1.38 1.38 1.38 1.37 1.37 1.38 1.38 1.40 1.37 1.38 1.45 1.46 1.45 1.44 1.42 1.43 1.44 1.40 1.41 1.41 1.38 1.38 1.36 1.34 1.30 1.26 1.24 1.23 1.21 1.19 1.16 1.12 1.09 1.03 0.93 0.86
1.30 1.37 1.37 1.24 1.21 1.23 1.26 1.27 1.26 1.29 1.25 1.19 1.19 1.18 1.15 1.18 1.19 1.17 1.19 1.24 1.30 1.28 1.29 1.25 1.27 1.28 1.28 1.34 1.37 1.39 1.38 1.42 1.46 1.46 1.46 1.46 1.44 1.43 1.40 1.41 1.40 1.39 1.38 1.36 1.37 1.38 1.37 1.36 1.37 1.35 1.35 1.34 1.32 1.29 1.28 1.29 1.30 1.32 1.35 1.36 1.34 1.38 1.43 1.42 1.40 1.41 1.38 1.39 1.39 1.39 1.40 1.40 1.38 1.36 1.33 1.29 1.26 1.24 1.24 1.23 1.20 1.19 1.18 1.13 1.02
1.21 1.24 1.24 1.24 1.23 1.24 1.25 1.25 1.29 1.28 1.25 1.21 1.21 1.23 1.22 1.22 1.20 1.21 1.17 1.17 1.20 1.27 1.27 1.27 1.20 1.17 1.25 1.27 1.29 1.36 1.38 1.41 1.43 1.43 1.45 1.45 1.45 1.35 1.40 1.38 1.37 1.36 1.36 1.36 1.38 1.38 1.38 1.38 1.37 1.36 1.34 1.34 1.32 1.30 1.27 1.26 1.27 1.27 1.34 1.40 1.41 1.43 1.43 1.44 1.38 1.38 1.36 1.37 1.36 1.36 1.37 1.37 1.38 1.37 1.37 1.36 1.35 1.33 1.32 1.29 1.26 1.23 1.22 1.21 1.15
1.17 1.19 1.21 1.23 1.22 1.23 1.25 1.24 1.27 1.25 1.23 1.22 1.22 1.21 1.23 1.23 1.20 1.15 1.22 1.18 1.15 1.24 1.26 1.23 1.12 1.08 1.06 1.10 1.18 1.27 1.33 1.36 1.36 1.38 1.40 1.38 1.41 1.39 1.41 1.38 1.39 1.39 1.39 1.38 1.39 1.40 1.41 1.40 1.38 1.36 1.37 1.34 1.32 1.28 1.23 1.19 1.18 1.21 1.23 1.28 1.32 1.30 1.33 1.33 1.34 1.34 1.36 1.35 1.33 1.30 1.29 1.30 1.30 1.31 1.32 1.33 1.35 1.37 1.39 1.39 1.40 1.38 1.33 1.27 1.20
1.18 1.21 1.22 1.23 1.23 1.21 1.20 1.25 1.25 1.23 1.18 1.15 1.15 1.13 1.18 1.20 1.18 1.11 1.10 1.19 1.19 1.26 1.24 1.25 1.10 1.16 1.15 1.06 0.99 0.97 1.13 1.21 1.28 1.31 1.32 1.37 1.39 1.36 1.40 1.38 1.35 1.41 1.38 1.41 1.41 1.42 1.42 1.41 1.40 1.38 1.34 1.30 1.27 1.23 1.19 1.16 1.16 1.17 1.20 1.22 1.27 1.33 1.36 1.35 1.35 1.36 1.33 1.33 1.29 1.23 1.19 1.16 1.16 1.16 1.17 1.19 1.20 1.22 1.26 1.31 1.37 1.39 1.40 1.40 1.42
1.20 1.17 1.17 1.18 1.19 1.17 1.19 1.21 1.20 1.21 1.18 1.12 1.10 1.10 1.14 1.17 1.16 1.14 1.13 1.05 1.10 1.16 1.26 1.26 1.21 1.12 0.92 0.95 0.98 0.97 0.86 0.97 1.07 1.20 1.33 1.34 1.33 1.35 1.37 1.36 1.35 1.40 1.36 1.33 1.39 1.43 1.38 1.40 1.37 1.34 1.29 1.23 1.19 1.16 1.14 1.13 1.14 1.13 1.15 1.18 1.22 1.26 1.27 1.26 1.25 1.26 1.23 1.21 1.13 1.08 1.07 1.06 1.06 1.07 1.08 1.09 1.11 1.14 1.15 1.17 1.20 1.24 1.31 1.33 1.34
1.18 1.16 1.13 1.10 1.10 1.10 1.10 1.11 1.13 1.14 1.15 1.12 1.09 1.10 1.15 1.17 1.15 1.14 1.13 1.06 1.03 1.09 1.19 1.25 1.23 1.24 1.06 0.95 0.90 0.86 0.86 0.97 1.05 1.10 1.24 1.23 1.29 1.32 1.33 1.31 1.32 1.30 1.32 1.33 1.35 1.33 1.35 1.34 1.32 1.29 1.21 1.13 1.10 1.06 1.05 1.04 1.04 1.06 1.07 1.09 1.10 1.11 1.10 1.10 1.08 1.04 0.99 0.94 0.93 0.94 0.95 0.96 0.97 0.98 0.98 0.99 1.02 1.07 1.11 1.14 1.19 1.19 1.20 1.22 1.25
1.15 1.13 1.11 1.06 1.03 1.06 1.06 1.06 1.07 1.09 1.10 1.10 1.10 1.11 1.13 1.15 1.16 1.12 1.09 1.11 1.06 1.03 1.03 1.18 1.21 1.20 1.17 1.11 1.02 0.88 0.89 1.00 0.98 0.85 1.14 1.20 1.23 1.27 1.27 1.29 1.31 1.27 1.27 1.27 1.26 1.28 1.31 1.28 1.28 1.20 1.09 1.03 1.01 0.99 0.97 0.96 0.96 0.95 0.94 0.95 0.96 0.95 0.94 0.93 0.91 0.87 0.83 0.78 0.76 0.76 0.78 0.79 0.82 0.84 0.86 0.87 0.90 0.93 0.98 1.04 1.09 1.14 1.17 1.19 1.22
1.07 1.09 1.09 1.06 1.04 1.05 1.06 1.06 1.08 1.08 1.10 1.10 1.07 1.06 1.10 1.15 1.17 1.13 1.09 1.08 1.06 0.97 0.98 1.02 1.12 1.15 1.16 1.14 1.13 1.11 1.10 0.99 0.88 0.94 0.84 1.03 1.15 1.17 1.20 1.26 1.26 1.25 1.22 1.23 1.24 1.22 1.20 1.19 1.09 1.02 0.97 0.92 0.87 0.82 0.78 0.75 0.74 0.74 0.72 0.70 0.71 0.72 0.73 0.74 0.74 0.74 0.71 0.65 0.62 0.60 0.60 0.58 0.58 0.61 0.64 0.70 0.78 0.84 0.89 0.96 1.04 1.09 1.12 1.16 1.18
1.00 1.04 1.06 1.06 1.03 1.03 1.03 1.02 1.03 1.06 1.08 1.07 1.06 1.09 1.11 1.15 1.18 1.21 1.14 1.08 1.03 0.98 0.97 1.02 0.95 0.98 1.10 1.07 1.06 1.08 1.10 1.09 1.06 0.94 0.88 0.83 0.92 1.13 1.20 1.21 1.21 1.21 1.20 1.18 1.16 1.10 1.03 0.98 0.94 0.90 0.84 0.75 0.71 0.68 0.65 0.62 0.60 0.58 0.56 0.54 0.52 0.52 0.51 0.50 0.49 0.48 0.49 0.49 0.47 0.45 0.44 0.44 0.43 0.45 0.47 0.50 0.56 0.66 0.74 0.81 0.89 0.99 1.07 1.12 1.16
0.99 0.97 0.94 0.95 0.96 0.94 0.95 0.97 1.00 1.02 1.06 1.07 1.09 1.11 1.09 1.09 1.13 1.13 1.10 1.08 1.06 1.04 1.00 0.98 0.98 0.97 1.03 1.03 1.03 1.01 1.04 1.05 1.06 1.04 0.90 0.83 0.85 0.91 0.97 1.12 1.13 1.13 1.13 1.14 1.10 1.03 0.94 0.86 0.81 0.73 0.69 0.65 0.61 0.57 0.53 0.48 0.45 0.43 0.41 0.38 0.35 0.33 0.33 0.34 0.36 0.37 0.39 0.41 0.41 0.42 0.41 0.40 0.38 0.38 0.39 0.39 0.40 0.44 0.50 0.58 0.67 0.77 0.90 1.01 1.08
0.96 0.96 0.93 0.92 0.91 0.92 0.90 0.92 0.95 0.97 0.99 1.00 1.03 1.04 1.07 1.07 1.07 1.07 1.08 1.05 1.08 1.06 1.01 1.02 1.03 1.05 1.05 1.03 0.95 0.96 0.97 0.98 0.99 0.98 0.96 0.93 0.82 0.85 0.92 0.91 0.88 0.99 1.07 1.04 1.00 0.94 0.87 0.82 0.73 0.65 0.58 0.52 0.47 0.42 0.38 0.35 0.33 0.32 0.31 0.30 0.30 0.30 0.31 0.32 0.35 0.38 0.41 0.43 0.43 0.43 0.42 0.42 0.41 0.39 0.38 0.37 0.37 0.37 0.39 0.42 0.48 0.55 0.65 0.78 0.91
0.93 0.96 0.97 0.93 0.88 0.89 0.89 0.88 0.90 0.92 0.92 0.91 0.95 0.99 1.02 1.04 1.06 1.06 1.06 1.03 1.04 1.05 1.06 1.06 1.06 1.04 1.03 1.02 0.98 0.94 0.91 0.87 0.90 0.94 0.91 0.89 0.88 0.88 0.92 0.95 0.91 0.90 0.99 1.02 0.96 0.85 0.78 0.71 0.59 0.54 0.48 0.41 0.37 0.35 0.33 0.33 0.33 0.33 0.33 0.33 0.34 0.35 0.36 0.36 0.36 0.36 0.38 0.41 0.44 0.45 0.43 0.43 0.42 0.41 0.40 0.39 0.38 0.36 0.35 0.35 0.37 0.40 0.44 0.51 0.61
0.92 0.93 0.94 0.96 0.95 0.92 0.92 0.90 0.89 0.90 0.88 0.87 0.91 0.99 1.04 1.04 1.04 1.03 1.03 1.04 1.05 1.03 1.03 1.01 1.01 1.02 1.02 1.04 1.02 1.02 1.00 0.96 0.98 0.98 0.93 0.91 0.89 0.90 0.92 0.96 0.94 0.94 0.99 0.98 0.89 0.78 0.72 0.63 0.56 0.49 0.44 0.39 0.36 0.36 0.36 0.35 0.36 0.35 0.35 0.37 0.39 0.40 0.41 0.42 0.42 0.40 0.39 0.39 0.41 0.43 0.44 0.42 0.41 0.41 0.40 0.40 0.40 0.38 0.36 0.34 0.32 0.32 0.34 0.36 0.40
0.88 0.86 0.90 0.95 0.98 0.97 0.96 0.92 0.89 0.91 0.90 0.88 0.88 0.98 1.03 1.02 1.03 1.02 1.01 1.00 1.00 1.00 0.96 0.96 0.98 0.96 0.97 1.02 1.03 1.03 1.00 1.02 1.01 0.96 0.96 0.94 0.92 0.90 0.95 0.96 0.86 0.88 0.93 0.88 0.74 0.74 0.70 0.59 0.52 0.44 0.39 0.36 0.35 0.35 0.36 0.37 0.37 0.39 0.41 0.43 0.44 0.45 0.46 0.45 0.45 0.43 0.40 0.38 0.39 0.40 0.42 0.43 0.41 0.40 0.39 0.39 0.37 0.36 0.36 0.36 0.36 0.35 0.33 0.31 0.31
0.86 0.82 0.85 0.90 0.95 0.99 1.01 0.99 0.93 0.92 0.91 0.88 0.90 0.94 0.97 0.97 0.97 0.93 0.93 0.97 0.99 0.97 0.96 0.97 0.98 0.99 1.02 0.97 0.99 1.01 1.01 1.01 0.97 0.94 0.90 0.90 0.88 0.85 0.84 0.87 0.88 0.84 0.86 0.78 0.73 0.63 0.59 0.55 0.49 0.44 0.42 0.41 0.40 0.39 0.39 0.40 0.43 0.44 0.44 0.44 0.45 0.45 0.45 0.45 0.45 0.45 0.44 0.44 0.44 0.44 0.43 0.43 0.43 0.42 0.41 0.39 0.38 0.37 0.36 0.36 0.36 0.36 0.37 0.37 0.36
0.85 0.82 0.81 0.84 0.92 0.96 0.99 0.98 0.93 0.91 0.88 0.83 0.87 0.90 0.90 0.90 0.88 0.87 0.89 0.92 0.93 0.93 0.93 0.92 0.91 0.93 0.97 0.98 0.98 0.99 1.00 1.01 0.98 0.94 0.94 0.90 0.87 0.84 0.79 0.74 0.77 0.78 0.72 0.71 0.66 0.59 0.48 0.48 0.50 0.46 0.48 0.50 0.49 0.45 0.42 0.42 0.43 0.46 0.47 0.47 0.47 0.47 0.47 0.47 0.47 0.48 0.49 0.48 0.48 0.47 0.47 0.46 0.45 0.45 0.44 0.42 0.41 0.40 0.40 0.40 0.38 0.37 0.35 0.34 0.35
0.86 0.82 0.80 0.81 0.86 0.89 0.89 0.87 0.88 0.89 0.87 0.82 0.83 0.82 0.83 0.82 0.80 0.82 0.81 0.88 0.87 0.86 0.86 0.86 0.86 0.89 0.92 0.96 0.95 0.95 0.98 0.99 0.97 0.95 0.93 0.91 0.87 0.83 0.80 0.73 0.62 0.55 0.60 0.55 0.50 0.44 0.48 0.40 0.47 0.50 0.48 0.50 0.53 0.52 0.49 0.47 0.47 0.48 0.49 0.50 0.51 0.50 0.50 0.50 0.49 0.49 0.48 0.48 0.47 0.47 0.46 0.46 0.46 0.46 0.45 0.45 0.43 0.42 0.40 0.40 0.40 0.39 0.37 0.36 0.35
0.87 0.84 0.77 0.74 0.79 0.81 0.81 0.80 0.81 0.85 0.84 0.80 0.77 0.75 0.78 0.77 0.78 0.79 0.79 0.82 0.82 0.80 0.81 0.80 0.82 0.83 0.86 0.89 0.89 0.91 0.93 0.96 0.93 0.92 0.90 0.87 0.84 0.81 0.74 0.66 0.56 0.47 0.41 0.38 0.36 0.35 0.40 0.42 0.38 0.46 0.52 0.51 0.50 0.54 0.54 0.52 0.52 0.54 0.53 0.52 0.53 0.54 0.54 0.53 0.51 0.49 0.48 0.47 0.47 0.46 0.45 0.44 0.44 0.45 0.45 0.44 0.43 0.42 0.41 0.39 0.39 0.40 0.39 0.38 0.38
0.91 0.84 0.79 0.71 0.70 0.74 0.75 0.74 0.74 0.80 0.78 0.73 0.68 0.71 0.74 0.75 0.77 0.76 0.77 0.76 0.75 0.76 0.78 0.79 0.78 0.80 0.83 0.86 0.87 0.86 0.91 0.92 0.90 0.90 0.87 0.83 0.79 0.74 0.69 0.63 0.54 0.42 0.36 0.28 0.28 0.36 0.35 0.42 0.45 0.46 0.53 0.54 0.56 0.55 0.58 0.57 0.56 0.57 0.56 0.56 0.56 0.56 0.56 0.56 0.54 0.51 0.48 0.46 0.46 0.47 0.48 0.48 0.47 0.46 0.45 0.45 0.44 0.42 0.41 0.40 0.38 0.39 0.39 0.38 0.39
0.92 0.86 0.81 0.74 0.66 0.65 0.67 0.67 0.67 0.73 0.74 0.69 0.66 0.67 0.71 0.70 0.70 0.69 0.70 0.71 0.70 0.69 0.72 0.75 0.78 0.80 0.80 0.83 0.87 0.87 0.91 0.92 0.91 0.88 0.84 0.80 0.75 0.69 0.62 0.56 0.50 0.44 0.40 0.36 0.31 0.36 0.42 0.40 0.47 0.53 0.54 0.57 0.59 0.57 0.58 0.60 0.60 0.60 0.58 0.58 0.60 0.59 0.57 0.56 0.56 0.54 0.52 0.50 0.48 0.48 0.48 0.49 0.49 0.48 0.47 0.46 0.44 0.42 0.40 0.39 0.38 0.37 0.38 0.37 0.37
0.93 0.86 0.80 0.72 0.65 0.60 0.61 0.62 0.63 0.69 0.71 0.69 0.66 0.65 0.69 0.70 0.68 0.65 0.67 0.67 0.67 0.67 0.68 0.73 0.74 0.76 0.79 0.81 0.84 0.86 0.88 0.88 0.86 0.80 0.78 0.77 0.71 0.60 0.54 0.50 0.48 0.46 0.44 0.40 0.38 0.41 0.48 0.47 0.48 0.52 0.56 0.57 0.60 0.57 0.57 0.59 0.62 0.63 0.62 0.61 0.61 0.61 0.59 0.56 0.54 0.54 0.54 0.54 0.53 0.50 0.48 0.47 0.46 0.45 0.45 0.44 0.42 0.40 0.39 0.38 0.37 0.37 0.36 0.36 0.36
0.90 0.81 0.71 0.66 0.63 0.61 0.59 0.60 0.63 0.67 0.69 0.70 0.68 0.65 0.64 0.68 0.71 0.68 0.66 0.65 0.65 0.67 0.68 0.65 0.65 0.66 0.72 0.77 0.77 0.80 0.80 0.77 0.76 0.72 0.71 0.69 0.63 0.59 0.57 0.55 0.52 0.51 0.47 0.45 0.43 0.44 0.51 0.56 0.52 0.53 0.57 0.59 0.58 0.60 0.58 0.58 0.59 0.62 0.64 0.64 0.63 0.61 0.58 0.57 0.55 0.56 0.57 0.56 0.55 0.52 0.50 0.47 0.45 0.44 0.43 0.41 0.39 0.39 0.38 0.37 0.37 0.37 0.36 0.36 0.36
0.84 0.71 0.68 0.66 0.64 0.63 0.61 0.60 0.60 0.61 0.64 0.66 0.66 0.63 0.60 0.59 0.66 0.70 0.67 0.63 0.62 0.62 0.62 0.61 0.60 0.63 0.67 0.72 0.72 0.72 0.74 0.73 0.69 0.68 0.66 0.64 0.65 0.64 0.62 0.60 0.58 0.56 0.56 0.49 0.46 0.46 0.46 0.53 0.52 0.57 0.57 0.60 0.54 0.60 0.59 0.59 0.59 0.61 0.62 0.62 0.63 0.62 0.60 0.60 0.59 0.59 0.60 0.58 0.56 0.54 0.52 0.50 0.47 0.45 0.42 0.40 0.39 0.38 0.37 0.37 0.37 0.37 0.38 0.37 0.36
0.77 0.72 0.70 0.65 0.64 0.63 0.60 0.58 0.56 0.55 0.56 0.58 0.60 0.59 0.57 0.56 0.59 0.64 0.66 0.63 0.59 0.57 0.55 0.56 0.57 0.60 0.62 0.66 0.67 0.68 0.69 0.66 0.63 0.65 0.67 0.67 0.68 0.66 0.65 0.63 0.60 0.59 0.58 0.54 0.50 0.47 0.49 0.53 0.57 0.56 0.58 0.59 0.56 0.57 0.59 0.60 0.60 0.61 0.60 0.60 0.62 0.63 0.62 0.64 0.63 0.63 0.61 0.59 0.57 0.55 0.53 0.50 0.47 0.44 0.41 0.40 0.39 0.38 0.38 0.38 0.38 0.37 0.37 0.37 0.37
0.74 0.73 0.74 0.70 0.64 0.62 0.58 0.56 0.54 0.52 0.51 0.51 0.52 0.55 0.56 0.58 0.57 0.59 0.61 0.59 0.57 0.56 0.55 0.55 0.57 0.58 0.58 0.60 0.62 0.63 0.63 0.61 0.62 0.63 0.65 0.66 0.66 0.67 0.67 0.68 0.65 0.62 0.61 0.59 0.56 0.53 0.55 0.54 0.58 0.59 0.62 0.60 0.61 0.62 0.63 0.65 0.65 0.66 0.66 0.66 0.66 0.64 0.66 0.68 0.66 0.63 0.61 0.60 0.58 0.56 0.54 0.52 0.49 0.45 0.42 0.40 0.40 0.39 0.39 0.39 0.39 0.39 0.39 0.38 0.38
0.75 0.72 0.71 0.69 0.63 0.58 0.55 0.55 0.54 0.53 0.51 0.49 0.48 0.51 0.55 0.56 0.54 0.55 0.57 0.56 0.55 0.55 0.55 0.56 0.59 0.59 0.58 0.58 0.60 0.62 0.62 0.62 0.63 0.64 0.64 0.62 0.62 0.62 0.62 0.64 0.63 0.62 0.59 0.56 0.55 0.57 0.58 0.57 0.59 0.63 0.64 0.65 0.67 0.67 0.69 0.67 0.70 0.74 0.75 0.72 0.70 0.69 0.69 0.70 0.67 0.65 0.62 0.60 0.58 0.55 0.53 0.52 0.49 0.46 0.43 0.42 0.41 0.40 0.40 0.40 0.41 0.41 0.41 0.40 0.39
0.75 0.72 0.69 0.65 0.60 0.55 0.53 0.53 0.54 0.55 0.54 0.52 0.51 0.51 0.51 0.51 0.50 0.52 0.56 0.57 0.58 0.59 0.59 0.58 0.58 0.60 0.59 0.60 0.61 0.62 0.62 0.62 0.61 0.60 0.60 0.60 0.60 0.60 0.60 0.61 0.62 0.61 0.58 0.56 0.57 0.60 0.60 0.60 0.61 0.62 0.66 0.66 0.67 0.68 0.70 0.70 0.69 0.71 0.74 0.75 0.74 0.72 0.69 0.67 0.66 0.65 0.62 0.60 0.56 0.56 0.55 0.53 0.50 0.46 0.44 0.43 0.42 0.41 0.41 0.41 0.41 0.42 0.42 0.42 0.41
0.77 0.72 0.69 0.63 0.60 0.57 0.55 0.53 0.53 0.55 0.55 0.56 0.55 0.54 0.53 0.53 0.52 0.52 0.55 0.60 0.63 0.65 0.64 0.62 0.60 0.59 0.59 0.59 0.60 0.61 0.59 0.58 0.57 0.57 0.58 0.60 0.60 0.60 0.60 0.60 0.61 0.59 0.58 0.58 0.62 0.62 0.62 0.63 0.64 0.64 0.65 0.69 0.70 0.68 0.73 0.75 0.72 0.70 0.69 0.70 0.68 0.70 0.70 0.67 0.63 0.63 0.63 0.60 0.58 0.57 0.56 0.53 0.50 0.47 0.45 0.44 0.43 0.43 0.43 0.42 0.42 0.42 0.41 0.41 0.41
0.79 0.78 0.69 0.62 0.60 0.59 0.58 0.58 0.56 0.57 0.58 0.58 0.58 0.58 0.57 0.57 0.57 0.55 0.58 0.63 0.65 0.65 0.65 0.63 0.61 0.60 0.59 0.58 0.58 0.57 0.56 0.56 0.56 0.57 0.56 0.55 0.58 0.59 0.62 0.63 0.63 0.62 0.62 0.65 0.65 0.64 0.64 0.65 0.64 0.64 0.66 0.67 0.71 0.75 0.76 0.74 0.70 0.70 0.72 0.71 0.66 0.65 0.65 0.66 0.65 0.62 0.64 0.63 0.60 0.59 0.57 0.53 0.50 0.47 0.46 0.45 0.45 0.44 0.44 0.43 0.43 0.42 0.42 0.41 0.41
0.84 0.82 0.77 0.68 0.62 0.60 0.60 0.62 0.64 0.64 0.62 0.60 0.61 0.60 0.60 0.60 0.60 0.60 0.62 0.64 0.64 0.62 0.62 0.61 0.60 0.60 0.59 0.58 0.58 0.58 0.59 0.58 0.58 0.57 0.58 0.59 0.58 0.57 0.60 0.64 0.65 0.66 0.66 0.66 0.65 0.65 0.65 0.66 0.66 0.68 0.67 0.68 0.70 0.71 0.71 0.71 0.69 0.68 0.73 0.74 0.70 0.68 0.66 0.64 0.65 0.67 0.67 0.63 0.60 0.57 0.53 0.51 0.47 0.45 0.45 0.44 0.45 0.44 0.43 0.43 0.42 0.42 0.41 0.40 0.40
0.85 0.82 0.79 0.74 0.67 0.63 0.61 0.62 0.64 0.66 0.67 0.65 0.61 0.60 0.61 0.62 0.60 0.61 0.63 0.64 0.63 0.62 0.61 0.59 0.59 0.60 0.59 0.59 0.59 0.60 0.60 0.61 0.62 0.62 0.62 0.62 0.63 0.63 0.63 0.65 0.65 0.66 0.67 0.66 0.66 0.67 0.67 0.66 0.67 0.68 0.66 0.66 0.68 0.70 0.71 0.73 0.75 0.75 0.73 0.71 0.67 0.66 0.64 0.62 0.63 0.65 0.68 0.65 0.59 0.52 0.50 0.50 0.46 0.44 0.45 0.43 0.44 0.44 0.43 0.42 0.41 0.41 0.40 0.39 0.39
0.86 0.83 0.83 0.78 0.72 0.68 0.67 0.63 0.62 0.63 0.66 0.68 0.67 0.62 0.58 0.60 0.62 0.62 0.62 0.63 0.64 0.64 0.63 0.61 0.59 0.59 0.60 0.61 0.62 0.64 0.64 0.63 0.62 0.62 0.61 0.61 0.62 0.63 0.66 0.68 0.70 0.69 0.67 0.67 0.68 0.69 0.68 0.66 0.68 0.68 0.68 0.68 0.69 0.71 0.71 0.73 0.74 0.73 0.72 0.72 0.69 0.65 0.60 0.58 0.56 0.62 0.69 0.65 0.56 0.49 0.46 0.48 0.46 0.41 0.42 0.42 0.43 0.43 0.42 0.41 0.41 0.40 0.39 0.39 0.38
0.93 0.90 0.86 0.87 0.84 0.78 0.72 0.70 0.66 0.64 0.64 0.67 0.69 0.69 0.66 0.64 0.63 0.61 0.62 0.62 0.63 0.64 0.65 0.64 0.64 0.64 0.63 0.64 0.66 0.67 0.66 0.65 0.64 0.63 0.63 0.64 0.65 0.67 0.69 0.72 0.75 0.77 0.77 0.74 0.71 0.69 0.68 0.66 0.66 0.67 0.68 0.69 0.71 0.72 0.72 0.72 0.72 0.73 0.74 0.73 0.71 0.67 0.62 0.59 0.58 0.57 0.63 0.64 0.53 0.46 0.41 0.44 0.44 0.41 0.39 0.39 0.40 0.41 0.40 0.40 0.39 0.38 0.38 0.37 0.37
1.01 0.97 0.94 0.92 0.90 0.89 0.85 0.76 0.72 0.71 0.70 0.69 0.70 0.70 0.70 0.70 0.69 0.69 0.67 0.65 0.61 0.61 0.63 0.64 0.64 0.64 0.65 0.64 0.64 0.66 0.66 0.67 0.68 0.70 0.72 0.73 0.75 0.76 0.77 0.78 0.79 0.79 0.79 0.79 0.79 0.76 0.75 0.71 0.68 0.69 0.72 0.75 0.74 0.74 0.75 0.75 0.77 0.73 0.74 0.72 0.72 0.69 0.64 0.60 0.59 0.60 0.61 0.60 0.50 0.42 0.37 0.40 0.41 0.38 0.36 0.38 0.39 0.38 0.38 0.39 0.38 0.37 0.37 0.36 0.36
1.00 1.00 1.00 0.96 0.95 0.94 0.93 0.91 0.88 0.83 0.78 0.78 0.77 0.75 0.74 0.73 0.72 0.72 0.73 0.73 0.72 0.70 0.68 0.67 0.66 0.66 0.66 0.65 0.64 0.65 0.69 0.71 0.73 0.74 0.74 0.75 0.76 0.78 0.80 0.81 0.82 0.83 0.83 0.82 0.81 0.81 0.80 0.77 0.76 0.73 0.77 0.80 0.78 0.79 0.83 0.83 0.79 0.76 0.74 0.73 0.73 0.69 0.64 0.61 0.63 0.62 0.59 0.57 0.46 0.40 0.36 0.38 0.39 0.36 0.34 0.36 0.37 0.36 0.37 0.38 0.37 0.37 0.37 0.36 0.36
0.90 0.90 0.93 0.92 0.92 0.92 0.93 0.93 0.93 0.92 0.92 0.90 0.85 0.81 0.78 0.76 0.75 0.75 0.74 0.75 0.74 0.74 0.73 0.72 0.72 0.72 0.72 0.73 0.73 0.73 0.74 0.76 0.77 0.77 0.77 0.78 0.81 0.82 0.82 0.82 0.82 0.82 0.82 0.82 0.81 0.81 0.80 0.80 0.80 0.81 0.82 0.82 0.85 0.88 0.88 0.86 0.84 0.83 0.81 0.78 0.74 0.69 0.66 0.65 0.64 0.60 0.56 0.53 0.47 0.40 0.32 0.36 0.39 0.35 0.34 0.35 0.36 0.36 0.37 0.38 0.38 0.37 0.37 0.37 0.37
0.87 0.87 0.86 0.87 0.87 0.88 0.90 0.91 0.90 0.89 0.92 0.95 0.94 0.90 0.85 0.83 0.81 0.79 0.77 0.75 0.75 0.75 0.75 0.76 0.78 0.79 0.80 0.79 0.79 0.78 0.79 0.80 0.83 0.84 0.86 0.88 0.87 0.84 0.82 0.81 0.80 0.80 0.80 0.82 0.83 0.83 0.85 0.85 0.86 0.88 0.88 0.91 0.90 0.88 0.87 0.86 0.85 0.84 0.81 0.78 0.74 0.69 0.63 0.58 0.52 0.53 0.48 0.48 0.46 0.40 0.35 0.34 0.39 0.34 0.34 0.36 0.36 0.35 0.37 0.38 0.38 0.37 0.37 0.37 0.37
0.82 0.80 0.80 0.79 0.80 0.81 0.83 0.84 0.85 0.85 0.87 0.90 0.91 0.92 0.92 0.89 0.86 0.84 0.83 0.82 0.82 0.80 0.81 0.83 0.85 0.85 0.87 0.87 0.86 0.85 0.85 0.85 0.89 0.91 0.91 0.90 0.88 0.87 0.85 0.80 0.79 0.79 0.79 0.82 0.83 0.83 0.86 0.88 0.90 0.92 0.92 0.89 0.87 0.87 0.86 0.86 0.85 0.83 0.79 0.74 0.68 0.63 0.56 0.49 0.48 0.45 0.41 0.43 0.44 0.42 0.38 0.34 0.37 0.36 0.34 0.36 0.36 0.35 0.35 0.36 0.37 0.38 0.37 0.37 0.37
0.75 0.75 0.75 0.75 0.75 0.76 0.77 0.77 0.79 0.79 0.80 0.83 0.85 0.88 0.92 0.94 0.94 0.91 0.88 0.85 0.84 0.85 0.85 0.87 0.89 0.89 0.90 0.91 0.91 0.90 0.90 0.90 0.92 0.92 0.92 0.90 0.87 0.85 0.85 0.82 0.78 0.76 0.78 0.80 0.82 0.83 0.87 0.89 0.91 0.91 0.89 0.88 0.89 0.89 0.88 0.86 0.84 0.85 0.79 0.69 0.62 0.57 0.50 0.48 0.42 0.39 0.40 0.42 0.43 0.45 0.38 0.35 0.38 0.38 0.35 0.36 0.36 0.36 0.36 0.36 0.37 0.38 0.38 0.38 0.38
0.73 0.74 0.75 0.74 0.73 0.72 0.72 0.72 0.73 0.74 0.77 0.80 0.82 0.83 0.86 0.91 0.94 0.96 0.96 0.92 0.90 0.89 0.88 0.87 0.91 0.94 0.91 0.92 0.94 0.96 0.96 0.96 0.96 0.95 0.93 0.91 0.86 0.84 0.90 0.85 0.77 0.75 0.78 0.80 0.82 0.83 0.82 0.84 0.87 0.90 0.87 0.89 0.86 0.86 0.86 0.86 0.86 0.83 0.73 0.64 0.60 0.54 0.48 0.42 0.39 0.39 0.37 0.40 0.44 0.46 0.37 0.37 0.37 0.37 0.36 0.32 0.29 0.34 0.36 0.36 0.36 0.37 0.38 0.38 0.38
Wind_Speed
8 8 9 9 8 8 8 8 8 8 8 8 8 8 8 8 9 9 9 9 10 10 10 10 11 11 12 13 13 14 14 14 14 14 13 13 12 12 12 12 12 11 11 11 11 11 11 11 10 10 10 10 10 10 9 9 9 10 10 10 10 9 9 9 9 8 8 8 8 8 8 8 7 7 7 7 7 7 7 7 7 7 7 6 6
8 8 9 8 8 8 8 8 8 8 8 8 8 8 8 9 9 9 9 10 10 10 10 10 10 11 11 12 12 13 13 13 13 14 13 13 13 12 12 12 12 11 11 11 11 11 11 11 11 11 11 10 10 10 10 10 10 10 10 10 11 11 11 10 10 10 9 9 9 9 9 9 9 9 8 8 8 8 8 8 8 8 8 7 7
9 9 8 8 8 8 8 8 8 8 8 8 7 7 7 8 8 9 9 9 9 9 9 10 10 10 10 11 11 12 12 12 13 13 13 13 13 12 12 11 11 11 10 10 10 10 11 11 10 10 11 10 10 10 10 10 10 10 10 10 11 11 11 11 11 11 10 10 10 10 10 10 10 10 9 9 9 9 9 9 9 9 9 9 8
9 9 8 8 9 9 9 9 8 8 8 7 7 7 6 7 7 8 8 8 8 8 8 9 10 10 10 10 11 11 12 12 12 12 12 12 12 12 11 11 11 11 10 9 9 9 9 10 10 10 10 10 10 10 10 10 10 10 10 10 10 10 10 11 11 11 11 11 11 11 11 11 11 11 10 10 10 10 10 10 10 10 10 10 9
9 9 9 9 9 9 8 8 8 8 8 7 7 7 6 7 7 7 7 7 7 8 8 9 9 9 9 10 11 11 11 11 11 11 11 11 11 11 11 10 10 10 9 9 8 8 8 8 9 9 9 9 9 9 9 9 9 9 9 9 10 10 10 10 10 10 10 10 11 11 11 11 11 11 11 11 11 11 11 11 11 11 10 10 10
9 9 9 9 9 8 8 8 8 8 7 7 7 7 6 7 7 7 7 7 7 7 8 8 8 8 8 9 10 10 11 11 11 11 10 9 10 10 10 9 9 8 8 8 8 7 7 7 7 8 7 7 7 8 8 9 9 9 9 9 9 9 10 10 10 10 10 10 10 10 10 11 11 11 11 12 12 12 12 11 11 11 11 11 11
9 9 9 9 8 8 8 8 7 7 7 7 7 6 6 6 6 6 6 7 7 7 7 7 7 8 8 8 8 9 10 10 11 10 10 9 9 9 9 8 8 7 7 6 6 6 6 6 6 7 6 6 7 7 8 8 9 9 9 10 10 10 10 10 10 10 10 10 10 10 10 10 11 11 11 11 11 12 12 12 12 12 12 12 12
9 9 9 9 8 8 8 7 7 7 6 6 6 6 6 6 6 6 6 6 6 6 6 6 7 7 7 7 7 8 9 9 10 10 9 9 8 8 8 7 7 7 6 6 5 5 5 5 5 5 6 6 6 7 7 8 9 9 10 10 10 11 11 11 11 11 11 11 11 11 11 11 11 11 11 11 11 12 12 12 12 12 12 12 12
10 9 9 9 8 8 7 7 7 7 6 6 6 6 6 5 5 5 5 6 6 6 6 6 6 6 7 7 7 7 8 9 9 9 8 8 7 7 7 6 7 7 6 6 5 5 4 5 5 5 5 5 6 6 7 8 8 9 9 10 11 11 11 11 11 11 11 11 12 12 12 11 11 11 11 11 12 12 12 12 12 13 13 13 13
10 10 9 8 8 8 7 7 7 7 6 6 6 6 6 5 5 6 6 5 6 6 6 6 6 6 6 6 6 7 7 7 8 8 8 8 7 7 7 6 6 6 6 5 5 5 5 5 5 5 5 5 5 6 6 7 7 7 8 10 10 10 11 11 11 11 11 12 12 12 12 12 12 12 13 13 13 13 13 13 13 13 13 13 13
10 9 9 8 8 8 8 7 7 7 7 7 6 6 6 6 6 6 6 6 6 6 6 6 5 6 5 5 6 6 6 7 7 7 7 8 8 8 7 6 6 5 5 5 5 5 5 5 5 5 5 5 5 6 6 6 7 7 7 8 9 9 9 10 10 10 11 11 12 12 13 13 13 13 14 14 14 14 14 14 14 14 14 14 14
9 9 9 9 8 8 8 8 7 7 7 7 7 7 6 6 6 6 6 6 6 6 6 6 6 5 5 5 5 5 5 6 7 7 7 7 8 8 8 7 6 6 6 5 5 5 5 5 5 5 5 6 6 6 6 6 7 7 7 7 7 7 8 8 8 9 9 10 10 11 12 12 13 13 14 14 15 15 15 15 15 15 14 14 14
9 9 9 8 8 8 8 8 7 7 7 7 7 7 7 7 7 6 6 7 6 6 6 6 6 5 5 5 4 4 4 5 6 7 7 7 8 8 7 6 6 6 5 5 5 5 6 6 5 5 5 6 6 6 6 6 6 6 6 6 6 7 7 7 7 8 8 8 9 9 10 11 11 12 13 14 15 15 16 16 16 15 15 15 14
8 8 8 8 8 8 8 8 7 7 7 7 7 7 7 7 7 7 7 7 7 7 7 6 6 6 6 5 5 4 4 4 5 6 7 6 7 7 6 6 6 5 5 5 5 5 5 5 5 5 5 5 5 5 5 5 5 5 5 6 6 6 6 6 7 6 6 7 7 8 9 9 10 11 12 13 14 15 15 16 16 16 16 15 15
8 8 7 8 8 7 7 7 7 7 7 7 7 8 8 8 8 8 8 7 7 7 7 6 6 6 6 5 5 5 5 4 5 5 6 6 6 6 6 6 6 5 4 5 5 5 5 5 4 4 4 4 4 4 4 4 5 5 5 5 5 5 5 6 6 6 6 6 7 7 8 9 10 10 11 12 13 14 14 15 15 16 16 16 15
7 7 7 7 7 7 7 7 7 7 7 7 8 8 9 9 8 8 8 8 8 8 7 7 7 7 6 6 6 5 5 5 5 5 5 6 5 6 6 6 5 5 4 5 4 4 4 4 3 3 3 3 3 3 4 4 4 4 4 5 5 5 5 6 6 6 7 7 8 8 9 9 10 10 11 11 12 12 13 13 14 15 16 16 16
7 6 6 6 7 7 7 7 7 7 7 7 8 8 9 9 9 9 9 9 9 9 8 8 8 7 7 6 6 6 6 6 6 5 5 5 5 5 6 6 5 5 4 4 4 4 3 3 3 3 3 3 3 3 4 4 4 5 5 5 5 6 7 7 7 7 8 8 8 8 9 9 10 10 10 11 11 11 11 12 13 13 14 16 16
7 6 6 6 6 6 6 6 7 7 7 7 8 8 9 9 9 9 9 9 9 9 9 9 9 8 8 7 7 7 7 7 6 5 5 5 5 6 6 5 5 5 5 4 4 3 3 3 3 3 3 3 3 4 4 5 5 6 6 6 7 7 8 8 8 8 8 8 8 8 9 9 10 10 10 11 11 11 12 12 12 12 13 14 15
7 7 7 7 7 7 7 7 7 7 7 8 8 8 9 9 9 9 9 9 9 9 10 9 10 9 9 8 8 7 7 7 7 7 6 5 5 5 5 5 5 5 5 5 4 4 3 3 3 4 4 4 4 5 6 6 6 6 7 7 7 7 7 8 8 8 8 8 8 9 9 9 10 10 10 11 11 12 12 12 12 12 12 13 13
7 7 7 8 8 7 7 7 7 7 7 8 8 8 9 9 9 9 9 10 10 10 10 10 10 10 10 9 8 8 8 8 8 8 6 6 5 5 5 5 5 5 5 5 4 4 4 4 4 4 5 5 6 6 6 7 7 7 7 7 7 7 7 7 7 8 8 8 9 9 9 9 10 10 11 11 11 12 12 12 12 12 12 12 12
7 7 8 9 9 9 8 8 8 8 7 8 8 8 9 9 9 9 10 10 10 10 10 11 11 11 10 9 9 8 8 8 8 8 7 7 7 6 6 6 6 6 5 5 5 4 4 5 5 6 6 7 7 7 7 7 7 7 6 6 6 6 6 6 7 7 7 8 8 8 9 9 9 10 10 10 11 11 11 11 11 11 11 11 11
6 7 8 9 9 10 10 10 9 9 8 8 8 8 9 9 9 9 10 10 10 10 11 11 11 11 11 10 10 9 8 8 8 8 7 7 7 7 7 7 7 6 6 6 5 5 5 5 6 7 7 7 7 7 7 6 6 6 5 5 5 5 5 5 5 6 6 6 7 7 7 8 8 8 9 9 10 10 10 10 11 11 11 10 10
6 6 7 8 9 10 10 10 10 9 9 9 9 9 9 9 9 9 10 10 10 10 10 11 11 11 11 11 11 10 9 9 9 9 8 8 7 7 7 7 7 6 7 7 6 5 5 6 6 7 7 7 7 6 6 5 5 4 4 3 3 3 3 4 4 5 5 6 6 6 7 7 8 8 9 9 9 10 10 10 10 10 11 11 10
6 6 6 7 8 9 10 10 10 10 9 9 10 9 9 9 9 9 10 10 10 10 11 11 12 12 12 11 11 11 10 10 10 10 9 9 9 8 8 7 7 7 7 7 6 6 6 6 6 6 6 6 6 5 5 4 4 3 2 2 2 2 3 3 4 4 5 5 6 6 7 7 8 8 9 9 9 9 10 10 10 10 10 10 11
7 7 7 7 8 9 10 10 10 10 9 9 10 10 9 9 9 10 10 10 10 10 11 11 12 12 11 11 11 11 10 10 10 10 9 9 9 8 8 8 7 7 7 7 7 7 7 7 6 6 6 5 5 4 3 3 3 2 1 1 2 2 3 3 4 4 5 5 6 6 7 7 8 8 8 9 9 9 9 10 10 10 10 10 10
7 8 7 7 7 8 9 10 10 10 9 10 10 10 9 9 9 9 10 10 10 10 10 10 11 11 11 11 10 10 10 9 9 9 9 10 10 9 8 7 7 7 8 8 8 8 8 7 6 6 5 5 5 4 3 3 3 2 2 1 2 2 3 4 4 5 5 6 6 7 7 7 8 8 9 9 9 9 10 10 10 10 11 11 11
7 7 7 7 7 7 8 9 10 10 10 9 10 10 9 9 9 9 9 9 9 9 9 10 10 10 10 10 10 10 9 9 9 9 10 10 10 10 9 8 7 8 8 9 9 9 8 7 7 6 6 5 5 5 4 4 3 3 3 2 3 3 3 4 5 6 6 7 7 8 8 8 9 9 10 10 10 10 10 11 11 11 11 11 12
7 7 8 8 8 8 7 8 9 10 9 9 9 9 9 9 9 8 8 8 8 9 9 9 10 10 10 10 9 9 9 9 9 9 9 10 10 10 10 9 8 9 9 9 9 9 8 7 7 7 6 6 6 6 5 5 4 4 4 4 4 4 4 5 6 7 7 8 9 9 9 10 10 10 11 11 12 12 12 12 12 12 12 12 12
8 8 8 8 8 8 8 8 9 9 9 8 8 8 9 9 8 8 8 8 7 8 8 8 9 9 9 9 9 9 8 8 8 8 9 9 9 9 9 9 8 8 9 9 9 9 8 8 7 7 7 7 6 6 6 6 5 5 5 5 5 5 6 7 7 8 8 9 10 11 11 11 12 12 13 13 13 14 14 14 14 14 14 13 13
9 9 9 8 8 9 9 9 9 9 9 8 7 8 8 8 8 8 7 7 7 7 7 8 8 8 9 9 9 8 8 8 8 8 8 9 9 9 9 9 8 8 7 7 8 9 8 8 7 7 7 7 7 6 6 7 7 7 7 7 7 7 8 8 9 9 10 10 11 12 13 13 13 14 14 14 15 15 15 15 15 15 15 15 15
10 10 9 9 9 9 9 9 9 9 9 8 7 8 8 8 7 7 7 7 7 7 7 7 8 8 8 8 8 8 8 8 7 7 8 8 9 8 8 8 8 8 7 6 7 8 8 8 7 7 7 7 7 7 7 8 8 9 9 9 9 9 9 10 10 10 11 12 12 13 14 14 15 15 15 16 16 16 16 16 16 16 16 16 16
10 10 10 10 10 10 10 9 9 9 10 9 8 8 8 8 8 8 8 8 8 8 7 7 7 7 8 8 9 9 8 8 7 7 8 8 8 8 8 9 8 8 8 7 6 7 8 8 8 8 8 8 8 8 8 9 9 10 11 11 11 11 11 11 11 12 12 13 14 14 15 16 16 17 17 17 17 18 18 17 17 17 16 16 16
11 10 10 10 10 10 10 10 10 10 10 10 9 9 8 8 9 9 8 8 8 8 8 7 7 7 8 8 9 8 8 8 8 7 8 8 8 8 9 9 9 9 9 8 6 7 8 9 9 9 9 9 9 10 10 10 10 11 12 12 12 12 12 12 13 13 14 14 15 16 16 17 17 18 18 18 19 19 18 18 18 18 17 17 17
11 11 11 11 11 10 10 11 11 11 11 11 11 10 9 10 10 10 9 9 9 9 8 7 7 7 7 8 8 8 8 7 7 7 8 8 8 9 9 10 10 10 10 9 8 7 8 9 9 9 10 10 11 11 11 11 11 12 13 13 14 14 14 14 14 15 15 15 16 16 17 17 18 18 18 19 19 19 19 18 18 18 18 18 18
11 11 11 11 11 11 11 11 11 11 12 12 12 11 11 11 11 11 10 10 10 10 9 8 8 7 7 7 8 8 7 7 7 7 8 8 9 10 10 10 11 11 11 10 10 9 9 10 10 10 11 11 12 12 12 12 13 13 14 15 15 15 15 16 15 15 16 16 16 17 17 18 18 19 19 19 19 19 19 19 19 19 19 19 19
12 12 12 12 12 12 12 12 12 12 12 12 12 12 12 11 12 12 12 11 11 10 10 10 9 8 8 8 8 8 8 8 8 8 8 9 10 10 11 11 11 12 12 12 11 10 10 11 11 12 12 12 12 12 13 13 14 15 15 16 16 16 16 16 16 16 16 17 17 18 18 19 19 20 20 20 20 19 19 19 19 20 20 20 21
12 12 11 11 12 12 13 13 13 13 12 12 12 12 12 12 12 13 12 12 11 10 10 10 10 10 9 9 9 9 9 9 9 9 9 9 10 10 11 11 12 12 13 12 12 12 11 12 12 12 13 13 13 14 14 14 15 15 15 16 16 15 15 16 16 17 17 18 19 19 20 20 20 20 20 20 20 20 20 20 20 21 21 22 22
12 11 10 11 11 12 13 13 14 13 13 13 13 13 13 13 13 13 13 12 11 11 11 11 11 11 11 11 10 10 10 10 10 10 10 10 10 11 11 12 12 13 13 13 13 13 13 13 13 13 14 14 14 15 15 16 16 16 16 16 16 16 17 17 18 18 19 20 20 20 21 21 21 21 21 21 21 21 21 21 21 22 22 23 23
12 11 11 11 12 12 12 13 14 14 14 14 14 13 13 13 13 14 14 13 12 12 12 11 11 12 12 12 12 12 11 11 11 11 12 12 12 12 12 12 13 13 14 14 14 14 15 15 15 15 15 15 15 16 16 16 17 17 17 17 18 18 19 19 20 20 20 21 21 22 22 22 22 22 22 22 22 22 22 22 23 23 23 24 24
12 12 12 12 12 12 12 12 13 14 14 14 15 14 14 14 14 14 14 14 13 13 13 13 12 12 12 13 13 13 13 13 13 13 14 14 14 14 14 14 14 15 15 16 16 16 16 17 17 17 16 17 17 17 17 17 18 18 19 19 19 20 20 20 21 21 22 22 23 23 23 23 23 23 23 23 23 23 23 23 23 24 24 25 26
13 13 13 13 13 13 13 13 14 14 14 15 15 15 15 14 15 15 14 14 14 14 14 14 14 14 14 14 14 14 15 15 15 16 16 16 16 16 17 17 17 17 17 18 18 18 18 18 18 18 18 18 18 18 18 19 19 20 20 20 21 21 22 22 22 23 23 24 24 24 24 24 24 24 24 24 24 24 24 24 25 25 26 27 28
13 14 14 13 13 14 14 14 15 15 15 14 14 15 15 14 14 15 15 15 15 15 16 16 16 16 16 17 17 17 17 17 18 18 18 18 18 18 19 19 19 19 19 19 19 19 19 19 20 20 20 21 21 21 21 21 21 21 21 21 22 22 23 23 24 24 25 25 25 25 25 25 25 25 25 26 26 26 26 27 27 28 29 29 30
13 14 14 13 14 14 14 15 16 16 16 15 15 15 15 15 15 15 16 16 16 17 17 18 18 19 19 19 19 19 20 20 20 20 20 20 20 20 20 20 20 20 20 20 20 20 21 21 22 22 22 23 23 23 23 23 23 23 23 23 23 23 23 23 24 25 26 26 26 26 26 26 26 26 27 27 27 28 28 29 30 31 32 32 33
13 14 14 14 15 15 15 16 17 18 17 17 17 17 17 16 16 16 17 18 18 19 19 20 20 20 21 21 21 21 21 21 21 21 21 21 21 21 21 21 21 21 21 21 22 22 23 23 24 25 25 25 25 25 25 25 25 24 24 24 24 24 24 24 25 26 27 27 27 27 27 28 28 28 28 29 29 30 31 32 32 33 34 35 35
14 14 14 15 16 16 16 16 17 19 19 19 19 19 19 19 19 18 19 19 20 21 21 21 21 22 22 22 22 23 23 23 23 23 23 22 22 22 23 23 23 23 23 24 24 24 25 25 26 27 28 28 28 28 28 27 26 25 24 24 24 24 24 25 25 26 27 28 28 27 28 28 29 29 29 30 31 32 32 33 34 34 35 36 36
15 15 15 16 16 16 16 17 18 19 19 20 20 20 21 21 21 21 21 21 22 22 22 23 23 23 23 23 24 24 25 25 24 24 24 24 24 24 24 24 25 25 25 26 26 26 27 28 29 30 30 30 30 30 29 28 26 26 25 25 25 25 25 25 26 27 28 28 28 28 28 29 30 30 30 31 32 32 33 33 34 35 35 35 36
17 17 17 17 17 17 17 18 18 19 20 21 21 21 21 22 23 23 24 24 24 24 24 24 24 25 25 25 26 26 26 26 26 26 26 25 25 26 26 26 27 27 28 28 29 29 30 30 31 31 31 31 30 30 29 28 28 27 26 26 25 26 26 26 27 28 28 28 28 28 29 30 31 30 31 31 32 33 33 34 34 35 35 35 36
17 17 17 18 18 18 18 19 19 20 21 21 22 22 23 23 24 25 26 27 27 27 27 26 26 26 27 27 28 28 28 28 28 28 28 28 28 28 29 29 29 30 30 30 31 32 32 32 31 31 31 31 31 30 29 29 28 27 26 25 26 27 27 28 28 29 28 29 29 29 30 31 31 31 32 32 33 33 34 34 35 35 36 36 36
17 17 17 18 18 19 19 20 21 22 23 23 23 24 24 24 24 25 26 27 28 28 28 28 28 28 29 29 29 30 30 30 30 30 31 31 31 31 31 31 31 32 32 33 33 33 32 32 32 32 31 30 30 29 29 28 27 26 26 26 27 28 28 28 29 29 29 29 30 30 31 32 32 32 33 33 33 34 34 35 36 36 37 37 37
18 19 19 20 20 21 21 22 23 24 25 26 26 26 26 26 26 26 27 28 29 29 29 29 29 30 31 31 31 31 31 32 33 33 34 35 34 33 33 34 34 35 35 34 34 34 33 33 32 31 30 28 27 27 27 26 26 26 27 28 29 29 29 29 29 29 30 30 30 31 31 32 33 33 34 35 35 34 35 36 36 37 37 37 37
21 21 22 23 23 24 24 25 25 26 27 28 28 28 28 28 29 29 29 30 31 31 31 31 32 32 32 32 32 33 33 34 35 36 36 37 37 36 36 36 37 37 37 37 37 36 35 34 33 32 30 29 27 27 27 26 26 27 28 29 29 29 29 29 29 29 30 31 31 32 32 33 34 34 35 35 36 35 35 36 37 37 38 38 38
Wind_Direction
237 239 243 245 245 241 238 238 239 242 244 247 248 247 247 247 248 248 247 247 247 245 241 237 234 232 231 232 232 233 233 234 235 235 235 233 233 235 237 240 243 245 250 254 257 257 256 255 258 260 262 264 265 266 268 269 270 270 271 271 272 272 273 274 275 277 278 279 280 280 283 285 288 289 289 290 290 290 291 295 300 301 304 307 311
238 239 242 243 240 237 238 239 242 246 248 251 252 253 254 252 252 251 249 250 251 247 243 239 237 235 232 232 232 232 233 234 234 234 233 232 232 234 236 241 243 245 251 253 255 257 256 256 259 262 263 264 265 266 268 268 268 268 269 269 269 270 270 271 272 274 276 278 279 280 282 283 285 286 288 289 289 289 288 290 294 295 296 298 300
235 237 240 240 236 238 243 245 247 249 250 252 252 255 256 254 253 252 250 250 249 246 242 241 240 238 232 230 230 230 231 232 232 232 231 230 231 233 235 242 243 245 250 253 256 257 255 255 259 263 263 264 266 266 267 267 267 267 268 268 269 269 269 269 270 271 273 275 277 279 280 282 283 283 285 286 286 287 286 286 289 290 292 293 293
233 235 238 237 237 241 246 248 248 247 247 249 251 255 257 255 253 249 246 246 246 242 239 239 239 236 232 229 228 228 229 228 228 229 229 229 230 231 234 239 241 242 247 251 255 256 255 253 255 262 263 263 266 266 266 266 267 267 267 268 268 268 268 268 268 270 271 273 275 277 278 280 281 282 283 283 284 284 284 283 285 286 287 289 289
232 233 234 237 240 244 246 247 245 243 243 246 250 256 258 258 253 246 243 244 246 241 237 236 235 232 230 227 226 227 225 223 224 225 227 227 228 229 231 234 237 239 243 247 250 252 255 253 252 259 262 261 265 265 264 266 267 268 269 269 268 268 268 268 269 270 271 272 275 276 278 279 280 281 282 282 283 283 282 281 282 282 282 284 285
232 233 234 238 241 243 244 244 243 242 242 244 249 255 257 256 252 246 244 244 244 240 236 233 231 231 228 224 224 224 222 222 222 223 224 224 225 225 227 231 235 238 241 245 247 247 251 252 249 254 259 261 265 266 265 267 268 269 270 270 269 269 269 270 270 271 272 273 274 275 277 278 278 279 280 281 281 282 282 281 281 280 280 280 281
234 234 235 238 240 242 243 243 242 242 242 243 246 250 253 252 248 244 243 242 240 236 233 230 228 228 222 219 221 221 220 221 220 221 222 222 222 223 225 230 234 236 239 240 239 238 243 249 251 255 261 265 267 268 269 270 269 268 269 270 270 270 270 270 271 272 272 273 274 275 276 277 278 278 278 279 279 280 281 282 282 282 281 281 281
235 234 234 236 237 240 240 239 239 239 242 243 244 247 248 247 244 240 237 236 233 230 227 223 221 219 215 217 221 220 219 219 219 219 219 219 220 220 222 226 228 228 229 229 229 231 239 248 254 260 265 270 271 272 274 274 272 269 268 270 270 270 270 270 271 272 272 273 274 276 277 277 277 278 279 279 280 281 281 282 283 283 282 282 282
234 232 233 233 234 236 236 234 235 236 240 243 244 244 243 242 237 233 231 229 225 220 216 212 211 212 214 219 220 217 218 219 218 216 215 216 214 212 216 220 222 221 222 225 228 234 243 250 256 260 265 271 274 276 278 278 276 274 273 273 271 271 271 272 272 271 271 273 275 276 277 277 277 278 279 280 282 282 282 282 282 282 282 281 281
231 229 230 230 231 233 233 233 232 235 239 242 242 240 239 237 230 227 227 224 219 212 206 203 204 208 210 213 213 213 215 214 212 211 213 214 209 208 211 213 215 218 220 224 229 237 244 250 255 260 265 271 276 280 283 284 282 280 279 277 276 276 275 274 274 273 273 274 276 277 278 279 279 280 280 280 281 282 282 282 281 281 281 280 280
227 227 228 229 232 232 232 232 232 235 238 239 240 237 236 231 225 222 220 217 214 208 203 201 202 203 201 202 205 210 212 209 206 209 215 214 210 209 211 212 215 218 220 223 230 236 240 244 251 258 266 273 280 285 288 289 287 285 284 283 283 282 279 276 275 277 277 277 277 278 279 279 279 280 281 280 281 281 281 282 281 281 281 280 279
223 225 227 229 232 231 231 231 232 235 238 238 237 234 232 226 218 216 213 208 207 206 203 202 198 196 197 197 202 209 212 210 209 214 219 216 211 210 212 216 219 219 222 225 230 237 239 243 251 258 267 276 281 285 288 289 288 287 287 287 286 285 284 282 281 282 282 280 280 282 281 281 280 281 281 281 282 282 282 282 281 281 281 280 279
219 222 225 228 231 230 230 231 230 233 236 236 233 230 228 222 214 212 210 203 200 201 202 201 198 198 199 198 202 209 210 209 211 217 219 215 212 211 211 218 222 222 227 230 233 239 243 246 253 262 270 277 281 286 288 289 289 288 289 290 288 288 290 291 291 290 289 288 289 289 289 288 286 285 284 283 283 284 283 281 280 279 280 280 279
217 221 224 226 229 230 231 231 230 231 233 231 228 226 224 220 214 210 208 205 203 202 201 206 208 205 202 200 205 211 212 209 210 218 222 218 217 217 219 226 227 226 231 235 237 242 245 247 254 264 272 278 284 289 291 292 294 293 294 294 293 294 294 296 298 298 297 297 299 299 297 297 295 294 292 290 288 287 285 282 279 277 276 277 278
215 218 222 224 225 228 229 230 229 231 232 228 226 225 223 220 214 210 207 206 207 206 207 213 211 204 202 206 212 213 216 220 218 223 227 223 221 223 227 233 233 233 237 238 238 239 241 245 253 262 269 279 289 295 298 298 299 299 299 297 298 301 301 302 304 303 302 302 304 305 305 304 303 301 300 299 296 292 288 285 282 278 274 274 276
212 214 218 221 223 226 228 229 229 230 230 227 225 223 221 219 215 213 210 207 209 211 215 218 211 207 208 213 217 216 219 224 221 224 227 225 225 224 227 235 239 243 241 235 235 236 240 243 249 258 267 280 292 299 302 301 300 300 301 297 298 303 304 303 303 304 303 303 304 305 306 306 305 306 306 307 305 301 295 291 287 283 276 273 274
210 212 215 219 221 224 227 228 228 227 227 226 224 222 221 220 218 217 215 213 213 216 220 220 214 215 218 217 218 221 223 221 220 229 232 229 230 228 231 238 241 242 236 230 233 238 243 242 241 249 266 279 288 294 299 302 302 302 302 299 298 300 302 301 300 300 301 302 304 305 305 306 306 308 309 310 310 308 305 300 295 291 283 277 273
213 214 216 218 221 223 225 225 226 224 223 223 223 222 221 222 223 222 221 220 219 219 222 223 220 223 227 226 228 230 226 221 222 230 233 235 235 232 233 235 233 235 233 232 235 236 234 233 237 252 268 278 284 293 299 301 300 299 299 300 299 300 300 300 298 299 300 302 304 305 306 307 307 309 310 310 310 310 310 308 304 300 295 287 278
218 219 221 224 226 228 227 227 227 224 221 221 222 222 222 223 225 226 226 224 223 221 223 224 225 229 233 235 238 235 228 225 226 226 225 231 235 229 228 230 230 232 233 232 231 232 235 240 247 257 268 277 286 294 297 297 295 294 295 297 298 299 299 300 300 300 301 302 304 304 305 306 306 307 308 309 310 310 310 311 310 308 305 300 289
220 225 229 231 233 233 231 229 229 226 224 222 222 223 223 225 226 228 227 226 225 224 225 226 227 231 234 238 239 236 232 232 230 226 221 219 222 224 223 226 230 232 233 232 231 235 243 251 256 261 270 279 285 290 292 291 291 291 293 295 296 298 298 300 302 303 303 303 304 305 305 306 307 307 308 309 310 311 311 312 312 311 310 308 303
227 233 236 236 237 237 234 232 230 229 228 225 224 224 225 226 227 229 229 228 228 228 227 227 228 231 235 238 237 234 235 233 227 226 226 221 218 219 219 224 231 236 235 233 235 243 252 259 264 268 274 279 282 284 286 287 289 290 292 294 296 298 300 301 303 305 306 307 307 309 310 311 312 312 312 312 312 313 313 313 314 314 314 314 312
235 239 240 239 238 237 236 234 232 230 231 229 227 226 227 227 229 231 231 230 232 232 231 229 229 231 234 236 234 232 233 231 227 227 231 230 222 216 218 223 229 235 236 236 241 251 263 270 272 273 275 277 279 281 283 286 287 288 290 292 295 299 304 306 310 312 313 315 316 318 319 320 321 322 321 321 320 319 319 318 318 317 317 318 317
241 244 244 242 240 238 236 234 233 232 233 232 230 229 229 230 232 233 232 232 233 234 234 232 230 231 232 233 232 231 232 231 228 226 229 232 224 219 221 222 223 230 235 239 246 256 270 278 279 277 274 275 277 279 281 283 283 283 284 287 294 302 311 318 323 326 326 327 328 329 330 329 329 329 328 327 326 325 325 323 322 320 319 318 317
246 248 248 246 243 240 236 234 234 235 235 234 230 229 230 232 233 235 236 236 236 235 234 233 232 232 232 232 231 232 235 236 231 227 229 228 220 216 219 223 229 234 236 240 248 258 270 279 279 276 272 272 273 273 272 271 269 270 272 282 302 313 323 330 334 335 334 333 333 333 334 334 333 333 331 329 328 327 326 326 325 324 322 319 317
249 248 247 248 247 242 236 232 233 235 237 236 231 230 232 234 235 236 238 239 237 235 234 233 233 233 232 231 231 232 235 237 233 231 231 223 215 213 217 225 232 233 238 245 250 257 265 274 276 272 268 266 263 259 254 251 248 246 257 283 313 323 328 332 333 334 333 333 333 334 334 335 335 336 335 333 332 330 328 327 326 324 323 321 319
250 245 245 248 247 242 235 231 232 234 237 237 233 230 232 235 236 237 238 237 234 232 232 231 230 230 229 228 228 229 232 234 233 231 227 218 214 214 216 226 232 234 242 248 251 257 261 265 267 263 260 257 250 244 240 238 238 238 252 279 299 313 322 327 328 327 327 327 327 329 330 331 332 333 335 335 333 332 330 328 326 324 321 319 318
250 245 245 246 244 241 235 231 231 234 236 235 233 230 231 234 236 237 236 233 230 229 228 227 225 224 222 223 225 226 227 229 230 229 224 218 217 216 214 221 232 241 248 249 254 259 258 257 258 253 251 251 248 243 239 240 245 248 257 273 288 301 312 317 319 320 321 321 321 321 322 324 325 327 328 330 329 328 326 325 323 322 320 318 316
252 246 244 243 241 239 236 232 230 232 234 232 230 229 229 231 233 234 233 230 227 227 226 225 223 221 220 220 221 222 224 225 225 226 224 221 220 220 219 222 229 238 245 249 255 258 253 252 253 247 245 247 248 248 247 247 250 253 260 269 280 293 303 308 311 314 318 319 318 317 316 317 319 320 321 322 323 323 321 320 318 317 316 315 313
253 248 244 241 239 238 238 236 230 228 229 228 226 225 225 228 228 227 228 227 225 225 224 222 220 219 217 215 215 218 221 221 222 224 222 220 223 226 227 230 232 235 238 244 251 251 248 248 250 248 245 245 248 250 252 253 254 256 261 269 278 287 295 300 305 310 314 316 317 316 315 315 314 315 315 315 316 317 316 315 313 312 311 310 309
252 250 246 242 239 238 238 236 229 224 225 226 223 220 220 222 222 222 223 221 219 218 217 215 214 213 213 214 216 219 220 219 220 221 219 218 223 226 228 231 233 233 233 238 245 246 244 245 249 250 248 246 248 251 253 255 256 258 263 271 279 284 289 294 301 306 310 313 314 314 314 314 313 312 311 311 310 311 311 310 309 307 306 306 305
251 250 246 243 239 235 235 233 227 222 223 224 220 216 214 214 213 215 217 216 213 212 211 211 212 211 213 215 216 216 215 214 215 215 216 218 222 224 225 227 230 232 232 233 242 244 241 242 247 249 248 248 250 254 256 258 259 261 264 270 277 282 285 291 297 302 306 309 310 312 312 311 311 310 309 309 309 309 309 308 306 304 303 302 301
250 249 246 241 235 231 230 229 224 220 220 222 219 213 211 211 211 210 212 214 212 209 209 211 213 212 213 212 213 212 211 212 213 214 216 219 223 225 226 227 230 233 233 234 243 246 240 241 247 249 248 249 253 257 260 262 263 265 266 269 275 279 283 288 293 297 301 304 307 308 309 309 309 308 308 308 308 309 308 306 304 302 301 300 299
250 246 240 234 229 226 226 227 224 220 219 220 219 216 213 213 214 213 213 214 214 211 209 212 214 214 213 209 209 210 211 213 215 217 219 221 224 228 232 234 235 236 237 237 242 246 243 245 250 253 253 254 257 260 263 266 267 268 270 272 276 279 282 285 290 294 298 301 303 304 305 306 307 307 307 307 308 308 307 305 303 302 300 299 298
248 239 231 227 226 226 228 230 228 225 222 222 222 221 218 215 216 217 216 215 216 215 212 214 217 218 215 209 208 212 215 217 219 221 224 226 228 232 235 238 239 239 238 239 242 246 247 250 253 256 257 259 261 263 267 269 269 270 272 274 277 280 282 283 287 292 297 299 300 302 304 305 306 306 306 307 307 308 307 306 305 303 301 299 298
242 234 229 227 227 229 232 233 231 227 225 224 224 224 221 217 217 218 217 216 217 218 217 218 219 218 216 211 210 213 217 221 223 226 230 233 235 236 237 240 243 244 242 243 247 251 253 255 257 259 260 261 264 266 269 271 272 273 274 275 277 279 280 281 284 290 294 297 299 301 303 305 306 305 306 306 307 307 307 307 306 304 302 300 298
236 233 231 230 230 233 234 233 230 227 225 224 224 223 222 219 218 218 217 217 219 220 221 220 219 218 216 214 214 216 219 223 227 231 236 239 242 242 242 243 244 245 244 245 251 257 259 260 262 264 264 266 268 268 270 272 274 276 277 277 277 277 277 279 283 288 292 295 297 299 301 303 304 305 305 305 306 306 306 306 305 304 302 300 298
233 231 230 230 233 234 233 231 228 226 224 223 223 222 222 221 221 219 218 218 220 222 223 223 222 221 220 220 221 222 225 229 234 238 241 242 245 246 245 245 244 244 245 248 253 259 262 262 265 267 269 270 271 272 272 273 275 277 278 278 277 277 278 279 282 286 290 293 296 298 300 302 303 304 304 304 304 303 303 302 302 302 300 299 297
228 227 228 230 233 233 232 230 227 225 225 225 224 223 223 223 222 221 220 221 222 223 224 225 225 225 226 226 228 230 233 237 240 244 246 246 247 248 247 247 247 247 248 251 256 260 262 263 265 267 269 270 272 274 275 275 275 276 277 276 277 278 279 280 282 286 289 292 295 297 299 301 302 303 303 303 302 301 301 301 301 301 300 298 297
226 227 231 234 233 230 229 228 226 226 225 226 227 226 226 226 225 223 222 224 225 226 227 228 228 229 230 231 234 237 240 243 246 249 250 251 251 252 252 252 251 250 251 255 259 261 263 265 266 267 269 270 272 274 276 276 276 276 275 274 276 277 279 280 282 285 289 292 294 296 298 299 300 301 302 301 301 301 301 301 301 300 300 299 298
229 232 235 236 233 229 228 229 228 228 228 229 230 229 229 229 227 226 226 226 229 230 231 232 232 232 233 234 237 241 244 247 250 252 253 254 255 255 256 256 256 255 257 259 262 264 265 266 267 268 270 271 272 274 275 275 275 276 274 273 274 276 278 280 282 285 288 291 293 295 297 298 299 299 300 300 300 301 301 301 301 300 300 299 299
231 233 235 234 232 230 231 232 232 232 232 233 233 232 232 232 230 229 229 230 232 233 234 236 237 237 239 240 243 246 249 252 253 255 257 258 259 260 260 261 261 261 262 263 265 266 268 268 268 269 270 271 271 272 273 273 274 276 276 275 275 276 278 279 282 285 288 290 292 293 295 296 296 297 298 298 298 299 299 300 300 300 300 300 299
231 231 230 228 229 231 233 235 235 235 234 234 233 232 232 233 233 233 234 236 237 237 238 240 242 244 245 247 249 252 254 256 257 258 260 261 263 263 263 263 264 264 265 265 266 268 270 269 269 270 271 271 271 272 273 274 275 276 276 276 277 278 279 281 282 285 289 290 290 291 293 294 294 294 295 295 296 297 298 298 299 299 299 299 299
230 229 227 228 233 236 238 239 238 237 236 235 234 235 236 237 237 238 240 241 242 242 243 244 246 248 249 251 254 256 258 260 260 261 262 263 264 265 265 264 265 265 265 266 268 270 272 272 272 272 272 273 273 274 274 275 275 275 275 276 277 277 279 282 284 286 289 291 290 290 291 292 292 292 293 294 294 295 296 296 297 297 297 297 297
229 229 231 237 241 242 242 241 240 239 239 238 239 240 242 242 244 244 245 245 245 246 247 249 250 251 253 255 257 260 261 262 262 263 264 264 266 266 266 266 265 265 266 268 271 273 274 274 275 275 275 276 275 275 275 275 275 274 274 276 277 277 279 283 285 287 290 291 291 290 290 291 292 292 292 293 294 294 295 296 296 296 296 296 296
231 233 239 244 245 245 244 243 242 241 241 242 244 245 245 246 247 248 248 247 248 248 249 251 252 254 255 258 260 261 262 262 262 263 264 265 267 268 267 267 267 267 268 270 272 274 275 277 277 276 276 276 276 276 275 274 273 272 273 275 277 278 281 284 286 288 290 291 291 290 290 291 292 293 293 294 295 295 296 296 297 297 297 297 297
236 240 244 246 246 246 245 243 242 242 243 245 247 248 249 250 250 250 250 250 250 251 252 253 254 255 257 259 261 262 262 263 263 264 265 266 267 267 268 267 268 268 269 271 272 274 276 277 278 278 277 276 276 275 273 272 271 271 273 275 277 280 283 286 287 288 290 290 290 289 289 291 293 294 294 295 296 296 296 296 297 298 298 298 298
242 245 247 248 248 249 248 246 245 246 247 248 249 250 253 253 253 252 251 252 252 253 254 255 256 257 259 260 261 263 263 264 264 264 265 265 265 266 267 268 269 270 271 272 274 275 277 277 278 278 277 276 275 273 271 270 271 272 273 275 278 282 285 287 288 289 290 290 289 288 289 291 293 294 294 295 297 297 297 297 298 299 299 299 298
246 247 248 250 251 251 251 249 249 250 251 252 253 255 256 255 254 253 252 252 253 254 256 257 258 259 260 261 262 263 264 264 265 264 264 265 266 266 268 269 270 270 271 273 274 275 276 276 277 277 276 274 272 269 267 267 268 270 272 275 279 282 284 285 287 289 289 289 288 288 289 291 293 294 295 296 297 297 297 297 298 300 300 299 299
250 251 252 253 254 254 254 253 253 254 255 256 257 259 259 258 256 255 254 254 254 255 256 257 259 261 262 263 263 264 264 265 265 265 265 266 267 267 268 270 271 271 272 274 275 275 275 275 276 276 275 272 269 266 264 264 264 266 271 275 279 281 283 284 286 287 288 288 288 289 290 291 292 293 294 296 296 297 296 296 298 299 300 299 299
256 256 258 258 258 257 258 258 258 258 258 259 260 261 261 260 259 259 258 257 256 257 257 259 261 263 263 263 263 264 265 266 266 266 267 268 268 268 269 271 272 273 273 275 275 275 276 276 276 275 274 271 267 264 262 260 261 265 271 276 278 279 281 283 285 286 287 288 288 290 291 292 293 294 295 296 296 296 296 296 297 299 299 299 299
259 260 261 261 260 260 261 262 262 262 261 262 262 263 262 261 261 261 261 260 259 259 259 261 263 264 264 264 265 266 267 268 268 268 268 269 269 269 270 272 273 274 275 275 275 275 275 275 274 272 271 269 265 262 260 258 260 266 272 275 277 278 280 282 284 286 288 288 288 290 292 292 294 295 296 296 296 296 296 297 298 298 298 298 298